Tracking 18840 objects as of 18-November-2017
HD Live streaming from Space Station
objects crossing your sky now

COSMOS 2251 DEB

Track COSMOS 2251 DEB now!
10-day predictions


NORAD ID: 37120
Int'l Code: 1993-036BGS
Perigee: 732.5 km
Apogee: 808.8 km
Inclination: 74.0 °
Period: 100.1 minutes
Semi major axis: 7141 km
RCS: 0.0125 m2 (small)
Launch date: June 16, 1993
Source: Commonwealth of Independent States (former USSR) (CIS)
Launch site: PLESETSK MISSILE AND SPACE COMPLEX (PKMTR)

Note: This is SATELLITE DEBRIS
aabbcc
Your satellite tracking list
Your tracking list is empty




NASA's NSSDC Master Catalog

Two Line Element Set (TLE):
1 37120U 93036BGS 17320.36101449  .00001725  00000-0  56382-3 0  9997
2 37120  74.0164 322.3229 0053410   0.6069 359.5139 14.38490074410790
Source of the keplerian elements: AFSPC